[[{"header":{"parameterUnit":"m.s-1","parameterCategory":1,"la1":30.2991,"la2":30.254,"lo1":-89.0895,"lo2":-89.0444,"dy":0.0017,"dx":0.0017,"nx":28,"ny":28,"refTime":"2025-12-01T09:00:00:Z","depth":0,"parameterNumber":2,"parameterNumberName":"U-component_of_WINDS"},"data":[0,0,0,0,0,0,0,0,0,0,0,0,0,0,0,0,0,0,0,0,0,0,0,0,0,0,0,0,0,0,0,0,0,0,0,0,0,0,0,0,0,0,0,0,0,0,0,0,0,0,0,0,0,0,0,0,0,0,-3.4223,-3.4224,0,-3.4327,-3.4329,-3.433,-3.4259,-3.4255,-3.4252,-3.4249,-3.4362,-3.4368,-3.4374,0,0,0,0,0,0,0,0,0,0,0,0,0,-3.397,-3.3975,-3.4223,-3.4225,-3.4226,-3.4327,-3.4329,-3.433,-3.4259,-3.4255,-3.4251,-3.4248,-3.436,-3.4367,-3.4375,0,0,0,0,0,0,0,0,0,0,0,0,0,-3.4078,-3.3977,-3.4223,-3.4202,-3.4202,-3.4327,-3.4329,-3.433,-3.426,-3.4255,-3.425,-3.4246,-3.4358,-3.4367,-3.4376,-3.4529,0,0,-3.4403,-3.4407,0,0,0,0,0,0,0,0,-3.4072,-3.4087,-3.4204,-3.4204,-3.4203,-3.4275,-3.4281,-3.4397,-3.4261,-3.4238,-3.4249,-3.4243,-3.4338,-3.4348,-3.4378,-3.4534,-3.4539,-3.4404,-3.441,-3.4413,-3.4416,0,0,0,0,0,0,0,-3.4064,-3.4082,-3.4265,-3.4206,-3.4206,-3.419,-3.42,-3.4302,-3.4314,-3.424,-3.4235,-3.4248,-3.4336,-3.437,-3.438,-3.4541,-3.4404,-3.4412,-3.4417,-3.4421,-3.4831,-3.4836,0,0,0,0,0,0,-3.4058,-3.4077,-3.4261,-3.4268,-3.4124,-3.4199,-3.421,-3.4257,-3.4313,-3.4316,-3.4252,-3.4244,-3.4357,-3.437,-3.4384,-3.457,-3.4413,-3.4422,-3.4427,-3.4825,-3.4832,-3.4838,0,0,0,0,0,0,-3.4053,-3.4075,-3.4257,-3.4171,-3.4193,-3.4208,-3.4262,-3.4262,-3.4295,-3.4322,-3.4324,-3.4283,-3.4353,-3.4371,-3.4494,-3.4573,-3.4426,-3.4434,-3.4819,-3.4827,-3.4835,-3.494,0,0,0,0,0,0,-3.4046,-3.4073,-3.413,-3.4173,-3.4198,-3.4363,-3.4266,-3.4267,-3.431,-3.4301,-3.4352,-3.4356,-3.4351,-3.448,-3.4503,-3.4582,-3.4441,-3.4812,-3.4823,-3.4832,-3.493,-3.4951,-3.4969,0,0,0,0,0,-3.4037,-3.4156,-3.4133,-3.4156,-3.4268,-3.4367,-3.4382,-3.4372,-3.4316,-3.4375,-3.4392,-3.4354,-3.456,-3.4494,-3.4518,-3.4602,-3.4807,-3.482,-3.4831,-3.4921,-3.4947,-3.4969,0,0,0,0,0,0,-3.4125,-3.4162,-3.4136,-3.4273,-3.4317,-3.4355,-3.4428,-3.4399,-3.4462,-3.4452,-3.4439,-3.4451,-3.4579,-3.4602,-3.4528,-3.4754,-3.4675,-3.4693,-3.4735,-3.476,-3.4779,-3.4772,-3.4449,0,0,0,0,0,-3.4159,-3.4235,-3.4264,-3.4381,-3.4405,-3.4413,-3.4456,-3.4444,-3.4491,-3.451,-3.4536,-3.4585,-3.4661,-3.4711,-3.4782,-3.4932,-3.4944,-3.5002,-3.5022,-3.5038,-3.5054,-3.5139,-3.5166,-3.4878,-3.4878,-3.4878,0,0,-3.4233,-3.4263,-3.4311,-3.44,-3.4433,-3.4514,-3.4429,-3.4518,-3.4579,-3.4524,-3.4641,-3.4662,-3.4716,-3.4854,-3.4916,-3.4877,-3.5136,-3.5053,-3.5066,-3.5074,-3.5154,-3.5181,-3.5206,-3.4886,-3.4885,-3.4884,0,0,-3.4409,-3.4437,-3.454,-3.4575,-3.4625,-3.463,-3.4655,-3.4698,-3.4709,-3.4826,-3.4788,-3.4861,-3.499,-3.5031,-3.5069,-3.5262,-3.523,-3.5285,-3.5389,-3.5471,-3.5494,-3.5514,-3.5586,-3.5612,-3.5301,-3.5301,-3.5301,0,-3.4495,-3.4613,-3.4597,-3.4689,-3.473,-3.4682,-3.4788,-3.4823,-3.4896,-3.4927,-3.4881,-3.5045,-3.5077,-3.5225,-3.5272,-3.5303,-3.5334,-3.528,-3.5492,-3.5512,-3.553,-3.5599,-3.5626,-3.5308,-3.5307,-3.5306,-3.5306,0,-3.4717,-3.48,-3.4877,-3.4947,-3.4997,-3.5095,-3.5096,-3.5149,-3.5134,-3.5144,-3.5266,-3.5303,-3.5382,-3.5416,-3.5402,-3.5563,-3.5538,-3.5492,-3.5413,-3.5565,-3.5629,-3.5655,-3.5317,-3.5315,-3.5313,-3.5311,0,0,-3.4952,-3.5012,-3.5041,-3.5073,-3.5126,-3.5191,-3.5288,-3.5363,-3.5411,-3.5463,-3.5546,-3.5658,-3.5616,-3.5659,-3.565,-3.5722,-3.5876,-3.5668,-3.5669,-3.5708,-3.606,-3.6096,-3.6127,-3.5855,-3.5859,-3.5863,-3.6057,0,-3.5133,-3.5301,-3.529,-3.5449,-3.5527,-3.5483,-3.5569,-3.5612,-3.5625,-3.5695,-3.5709,-3.579,-3.5728,-3.5754,-3.5823,-3.5843,-3.5947,-3.5828,-3.5936,-3.594,-3.5926,-3.616,-3.6198,-3.6378,-3.6082,-3.6086,-3.6089,0,-3.5367,-3.5425,-3.5592,-3.5635,-3.5668,-3.5744,-3.5814,-3.588,-3.593,-3.5934,-3.5983,-3.5961,-3.6063,-3.5979,-3.6121,-3.604,-3.6084,-3.61,-3.6107,-3.6119,-3.6026,-3.6181,-3.6435,-3.6464,-3.6128,-3.6125,-3.6122,0,-3.5525,-3.5646,-3.5762,-3.579,-3.5843,-3.5898,-3.5923,-3.5967,-3.6014,-3.6076,-3.6107,-3.618,-3.6221,-3.6279,-3.628,-3.6218,-3.6425,-3.634,-3.6434,-3.6435,-3.6482,-3.648,-3.675,-3.6505,-3.6505,-3.6504,-3.6504,0,-3.573,-3.5835,-3.5834,-3.5906,-3.6022,-3.601,-3.6126,-3.6146,-3.6186,-3.6263,-3.6229,-3.6303,-3.6297,-3.6373,-3.6374,-3.6493,-3.6511,-3.652,-3.652,-3.6525,-3.6524,-3.6555,-3.6544,-3.6512,-3.651,-3.6509,-3.6507,0,-3.5928,-3.5931,-3.6055,-3.6094,-3.6107,-3.6192,-3.6227,-3.6296,-3.6305,-3.6404,-3.6426,-3.6442,-3.6529,-3.6535,-3.6635,-3.6636,-3.6783,-3.6767,-3.6766,-3.6764,-3.6859,-3.6852,-3.7162,-3.7203,-3.6928,-3.6931,-3.6933,0,-3.606,-3.6139,-3.6187,-3.6235,-3.6263,-3.6341,-3.6388,-3.6379,-3.6431,-3.6494,-3.6557,-3.664,-3.6706,-3.6848,-3.6871,-3.6949,-3.6937,-3.704,-3.6948,-3.6952,-3.6942,-3.6939,-3.6948,-3.7059,-3.7062,-3.7064,-3.7066,0,-3.6294,-3.6292,-3.636,-3.6431,-3.6488,-3.6543,-3.6594,-3.6636,-3.6634,-3.6694,-3.6782,-3.6833,-3.6936,-3.7021,-3.7097,-3.7125,-3.7098,-3.7094,-3.7121,-3.7129,-3.7126,-3.7132,-3.6818,-3.7088,-3.7086,-3.7084,-3.7083,-3.7082,-3.6465,-3.6535,-3.6579,-3.6658,-3.6695,-3.6744,-3.6812,-3.683,-3.6902,-3.6984,-3.6975,-3.7073,-3.7123,-3.7222,-3.7257,-3.7336,-3.7301,-3.7339,-3.7349,-3.7359,-3.7371,-3.7111,-3.7349,-3.7349,-3.7348,-3.7348,-3.7347,0,-3.6701,-3.6727,-3.6799,-3.6872,-3.6934,-3.6899,-3.6955,-3.701,-3.7097,-3.7144,-3.721,-3.7313,-3.7395,-3.7424,-3.7505,-3.7563,-3.7552,-3.7585,-3.7582,-3.759,-3.7395,-3.7366,-3.7592,-3.7592,-3.7592,-3.7592,-3.7592,-3.7592,-3.6831,-3.6947,-3.6951,-3.7087,-3.7113,-3.7208,-3.7243,-3.729,-3.7328,-3.7443,-3.751,-3.7528,-3.757,-3.7654,-3.7729,-3.7735,-3.7768,-3.7807,-3.7809,-3.7628,-3.7603,-3.758,-3.7552,-3.7814,-3.7814,-3.7997,-3.7999,-3.8]},{"header":{"parameterUnit":"m.s-1","parameterCategory":1,"la1":30.2991,"la2":30.254,"lo1":-89.0895,"lo2":-89.0444,"dy":0.0017,"dx":0.0017,"nx":28,"ny":28,"refTime":"2025-12-01T09:00:00:Z","depth":0,"parameterNumber":3,"parameterNumberName":"V-component_of_WINDS"},"data":[0,0,0,0,0,0,0,0,0,0,0,0,0,0,0,0,0,0,0,0,0,0,0,0,0,0,0,0,0,0,0,0,0,0,0,0,0,0,0,0,0,0,0,0,0,0,0,0,0,0,0,0,0,0,0,0,0,0,-2.8555,-2.8554,0,-2.8548,-2.8548,-2.8548,-2.8526,-2.8525,-2.8525,-2.8524,-2.8518,-2.8518,-2.8518,0,0,0,0,0,0,0,0,0,0,0,0,0,-2.8546,-2.8547,-2.8555,-2.8554,-2.8554,-2.8548,-2.8548,-2.8548,-2.8526,-2.8525,-2.8525,-2.8524,-2.8518,-2.8518,-2.8518,0,0,0,0,0,0,0,0,0,0,0,0,0,-2.8546,-2.8547,-2.8555,-2.8543,-2.8542,-2.8548,-2.8548,-2.8548,-2.8526,-2.8525,-2.8525,-2.8524,-2.8517,-2.8518,-2.8518,-2.8536,0,0,-2.852,-2.852,0,0,0,0,0,0,0,0,-2.8546,-2.8546,-2.8544,-2.8543,-2.8542,-2.8537,-2.8543,-2.8544,-2.8526,-2.8532,-2.8524,-2.8524,-2.8525,-2.8524,-2.8525,-2.8536,-2.8535,-2.852,-2.852,-2.852,-2.852,0,0,0,0,0,0,0,-2.8546,-2.8546,-2.8552,-2.8544,-2.8543,-2.8537,-2.8536,-2.8543,-2.8533,-2.8531,-2.853,-2.8529,-2.8524,-2.8525,-2.8525,-2.8535,-2.852,-2.852,-2.852,-2.852,-2.8559,-2.856,0,0,0,0,0,0,-2.8548,-2.8547,-2.8552,-2.8552,-2.8542,-2.8538,-2.8537,-2.8539,-2.8532,-2.8531,-2.853,-2.8528,-2.8524,-2.8524,-2.8524,-2.8544,-2.852,-2.852,-2.8521,-2.8558,-2.8559,-2.856,0,0,0,0,0,0,-2.8548,-2.8549,-2.8552,-2.8549,-2.8549,-2.8539,-2.8542,-2.854,-2.854,-2.8531,-2.8529,-2.8533,-2.8524,-2.8524,-2.8533,-2.8544,-2.8521,-2.8521,-2.8557,-2.8559,-2.856,-2.8584,0,0,0,0,0,0,-2.8548,-2.8549,-2.8556,-2.8549,-2.8549,-2.8562,-2.8543,-2.854,-2.8541,-2.8539,-2.8533,-2.8532,-2.8523,-2.8533,-2.8533,-2.8544,-2.8521,-2.8556,-2.8558,-2.8559,-2.8582,-2.8586,-2.8589,0,0,0,0,0,-2.8548,-2.8563,-2.8556,-2.8557,-2.8558,-2.8562,-2.8562,-2.8552,-2.8542,-2.8549,-2.8543,-2.8532,-2.8542,-2.8534,-2.8535,-2.8545,-2.8556,-2.8558,-2.8559,-2.8581,-2.8585,-2.8589,0,0,0,0,0,0,-2.8571,-2.8562,-2.8554,-2.8568,-2.8566,-2.8559,-2.8567,-2.8557,-2.8558,-2.8556,-2.8543,-2.8542,-2.8553,-2.855,-2.8541,-2.8561,-2.8547,-2.8549,-2.8563,-2.8567,-2.8571,-2.8571,-2.8522,0,0,0,0,0,-2.8578,-2.8583,-2.8574,-2.8588,-2.8587,-2.8577,-2.8579,-2.8571,-2.8568,-2.8568,-2.8562,-2.856,-2.8563,-2.8565,-2.8567,-2.8582,-2.858,-2.8589,-2.8592,-2.8595,-2.8597,-2.8604,-2.8608,-2.8566,-2.8566,-2.8566,0,0,-2.8592,-2.8588,-2.8592,-2.8592,-2.859,-2.8595,-2.8577,-2.8583,-2.8586,-2.8568,-2.8577,-2.8573,-2.8569,-2.8582,-2.8587,-2.8579,-2.8608,-2.8598,-2.86,-2.86,-2.8606,-2.861,-2.8614,-2.8567,-2.8567,-2.8567,0,0,-2.8621,-2.8618,-2.8628,-2.8626,-2.8623,-2.8616,-2.8618,-2.8612,-2.8609,-2.8617,-2.8603,-2.8607,-2.8612,-2.861,-2.8609,-2.8636,-2.8626,-2.8637,-2.8655,-2.8661,-2.8665,-2.8668,-2.8677,-2.868,-2.8639,-2.8639,-2.8639,0,-2.8639,-2.8647,-2.8635,-2.8642,-2.8642,-2.8626,-2.8636,-2.8634,-2.8631,-2.8632,-2.8623,-2.8629,-2.8625,-2.8636,-2.8643,-2.8643,-2.8645,-2.8638,-2.8665,-2.8668,-2.8671,-2.8679,-2.8683,-2.864,-2.864,-2.864,-2.864,0,-2.8669,-2.8674,-2.8683,-2.868,-2.8681,-2.869,-2.8679,-2.8682,-2.8673,-2.8667,-2.8675,-2.867,-2.8671,-2.8673,-2.8665,-2.8682,-2.8678,-2.8668,-2.8653,-2.8676,-2.8684,-2.8687,-2.8642,-2.8642,-2.8641,-2.8641,0,0,-2.8713,-2.8704,-2.8707,-2.8705,-2.87,-2.8703,-2.871,-2.8711,-2.8713,-2.8711,-2.8717,-2.8721,-2.8711,-2.871,-2.8702,-2.8708,-2.8729,-2.8697,-2.8696,-2.8703,-2.8747,-2.8755,-2.8759,-2.8722,-2.8722,-2.8723,-2.8747,0,-2.874,-2.8753,-2.8742,-2.8756,-2.876,-2.8744,-2.875,-2.8747,-2.8741,-2.8744,-2.8737,-2.874,-2.8727,-2.8727,-2.8732,-2.8725,-2.8737,-2.8723,-2.8726,-2.8727,-2.8728,-2.8763,-2.8772,-2.8795,-2.875,-2.8751,-2.8751,0,-2.8774,-2.8773,-2.8788,-2.878,-2.8782,-2.8788,-2.8787,-2.8789,-2.8785,-2.878,-2.8779,-2.8769,-2.8775,-2.876,-2.8768,-2.8758,-2.8759,-2.8756,-2.8756,-2.8756,-2.8741,-2.8764,-2.8802,-2.8806,-2.8756,-2.8755,-2.8755,0,-2.8805,-2.8808,-2.8816,-2.8816,-2.8807,-2.8811,-2.8808,-2.8803,-2.8804,-2.8802,-2.8802,-2.8802,-2.8802,-2.8802,-2.8791,-2.8781,-2.88,-2.8785,-2.8796,-2.8796,-2.8801,-2.8801,-2.884,-2.8801,-2.8801,-2.8801,-2.8801,0,-2.8836,-2.8846,-2.883,-2.8836,-2.8845,-2.8832,-2.8842,-2.8837,-2.8833,-2.8837,-2.8822,-2.8826,-2.8812,-2.8814,-2.8806,-2.8813,-2.8813,-2.8809,-2.8807,-2.8811,-2.8811,-2.8811,-2.8809,-2.8802,-2.8802,-2.8801,-2.8801,0,-2.8873,-2.8863,-2.8871,-2.8862,-2.886,-2.8867,-2.886,-2.8864,-2.8857,-2.8862,-2.8862,-2.8851,-2.8852,-2.8842,-2.8841,-2.8836,-2.8847,-2.8842,-2.8849,-2.8847,-2.8859,-2.8858,-2.8899,-2.8904,-2.8862,-2.8863,-2.8863,0,-2.8894,-2.89,-2.8892,-2.8893,-2.8891,-2.8893,-2.8894,-2.8881,-2.8881,-2.8877,-2.8881,-2.8882,-2.8882,-2.8885,-2.8876,-2.8876,-2.8871,-2.8885,-2.887,-2.8874,-2.8871,-2.887,-2.8871,-2.8888,-2.8889,-2.8889,-2.889,0,-2.8932,-2.8926,-2.8927,-2.8926,-2.8927,-2.8925,-2.8923,-2.8925,-2.8911,-2.8912,-2.8914,-2.8914,-2.8913,-2.8913,-2.8911,-2.8907,-2.8896,-2.8894,-2.8897,-2.8901,-2.8904,-2.8902,-2.8857,-2.8893,-2.8893,-2.8893,-2.8893,-2.8892,-2.8961,-2.8966,-2.896,-2.8962,-2.8958,-2.8956,-2.896,-2.8953,-2.8954,-2.8952,-2.8944,-2.8947,-2.8941,-2.8937,-2.8934,-2.8936,-2.8929,-2.8932,-2.8933,-2.8934,-2.8937,-2.8904,-2.8935,-2.8935,-2.8935,-2.8935,-2.8935,0,-2.8998,-2.8994,-2.8995,-2.8992,-2.8993,-2.8982,-2.8978,-2.898,-2.8982,-2.8978,-2.8978,-2.8979,-2.8979,-2.897,-2.8969,-2.8972,-2.8967,-2.8972,-2.8972,-2.8971,-2.8943,-2.8941,-2.8976,-2.8976,-2.8976,-2.8976,-2.8976,-2.8976,-2.9018,-2.9026,-2.9019,-2.9025,-2.902,-2.9022,-2.9021,-2.9019,-2.9015,-2.9017,-2.9017,-2.9011,-2.9005,-2.9003,-2.9002,-2.9,-2.9,-2.9007,-2.9003,-2.8977,-2.8973,-2.8969,-2.8967,-2.9007,-2.9007,-2.903,-2.903,-2.903]}]]